User: anonymous   Login
Location: ?????
(32.7281°N, 34.9563°E)
Time: 11:53:27
(UTC+00:00)
Language:

CZ-4B R/B - Orbit

View from above orbital plane
View from above orbital plane
View from above satellite
View from above satellite

Ground track
Ground track

The orbit data is extracted from the following two-line orbital elements,

1 29093U 06015B   21022.93306738  .00003679  00000-0  69903-4 0  9997
2 29093  97.6302 207.1123 0050013 245.8070 113.7947 15.47634713820411
Epoch (UTC): 22 January 2021 22:23:37
Eccentricity: 0.0050013
inclination: 97.6302°
perigee height: 389 km
apogee height: 457 km
right ascension of ascending node: 207.1123°
argument of perigee: 245.8070°
revolutions per day: 15.47634713
mean anomaly at epoch: 113.7947°
orbit number at epoch: 82041

The dashed part of the orbit path shows where the satellite is in the earth's shadow,  

DLR